Regional Weather Roundup
Issued by NWS Cleveland, OH

Home | Current Version | Previous Version | Text Only | Print | Product List | Glossary Off
Versions: 1 2 3 4 5 6 7 8 9 10 11 12 13 14 15 16 17 18 19 20 21 22 23 24 25 26 27 28 29 30 31 32 33 34 35 36 37 38 39 40 41 42 43 44 45 46 47 48 49 50

000
ASUS41 KCLE 030602
RWRCLE
OHIO REGIONAL WEATHER ROUNDUP
NATIONAL WEATHER SERVICE CLEVELAND, OH
200 AM EDT MON AUG 03 2015

NOTE: "FAIR" INDICATES FEW OR NO CLOUDS BELOW 12,000 FEET WITH NO
SIGNIFICANT WEATHER AND/OR OBSTRUCTIONS TO VISIBILITY.

OHZ001>008-015>018-024>027-034-035-043-044-030700-
   NORTHWEST OHIO

CITY           SKY/WX    TMP DP  RH WIND       PRES   REMARKS
DEFIANCE       HVY RAIN  64  61  90 CALM      29.85R FOG
FINDLAY        CLOUDY    69  58  67 N24G36    29.86R
TOLEDO EXPRESS LGT RAIN  63  62  97 SE5       29.82F
TOLEDO EXEC    TSTM      63  60  90 E6        29.84F
LIMA           MOCLDY    74  62  66 SW14G22   29.81F
$$

OHZ009>014-019>023-028>033-038-089-030700-
   NORTHEAST OHIO

CITY           SKY/WX    TMP DP  RH WIND       PRES   REMARKS
CLE-HOPKINS    TSTM      65  62  90 NW14G23   29.92R
CLE-LAKEFRONT  CLOUDY    66  62  87 NW21      29.90R
CUY CO. ARPT   NOT AVBL
LORAIN-ELYRIA  HVY RAIN  64  62  93 VRB7G23   29.92R FOG
ASHTABULA      CLOUDY    68  61  78 N7        29.85R
AKRON-CANTON   PTCLDY    73  60  63 SW12      29.82S
WOOSTER        PTCLDY    71  60  68 SW9       29.83S
MANSFIELD      PTCLDY    74  59  59 SW18G29   29.82F
YOUNGSTOWN     MOCLDY    73  61  65 SW16      29.80S
$$

OHZ042-051>053-060>062-070>072-077>081-030700-
  SOUTHWEST OHIO

CITY           SKY/WX    TMP DP  RH WIND       PRES   REMARKS
CINC-COVINGTON CLEAR     70  61  73 SW6       29.88S
CINC-LUNKEN    CLEAR     66  63  90 CALM      29.88R
HAMILTON       CLEAR     68  62  81 CALM      29.88R
DAYTON         PTCLDY    72  62  71 SW10      29.86F
WRIGHT-PAT AFB NOT AVBL
DAYTON GENERAL CLEAR     69  60  73 S8        29.87R
WILMINGTON     CLEAR     65  59  81 SW6       29.88S
$$

OHZ036-037-039>041-045>050-054>059-063>069-073>076-082>088-030700-
  CENTRAL AND SOUTHEAST OHIO

CITY           SKY/WX    TMP DP  RH WIND       PRES   REMARKS
COLUMBUS       PTCLDY    72  61  68 SW6       29.85S
OSU AIRPORT    CLEAR     71  60  68 S9        29.84F
BOLTON FIELD   NOT AVBL
RICKENBACK AFB CLEAR     67  61  79 S7        29.85F
NEWARK         CLEAR     70  60  70 SW6       29.85F
MARION         PTCLDY    72  61  68 SW13      29.82F
LANCASTER      CLEAR     69  59  70 S5        29.86F
ZANESVILLE     CLEAR     68  60  75 S6        29.85F
NEW PHILLY     CLEAR     72  60  66 SW8       29.83F
$$



USA.gov is the U.S. government's official web portal to all federal, state and local government web resources and services.